Location: Arroyo Grande
(40.2671°N, 4.2512°W)
Time: 19:29:03
(UTC+00:00)

ATLAS CENTAUR R/B - Pass Details

Date: 03 February 2023
Orbit: 450 x 653 km, 64.7° (Epoch: 19 March)

Event Time Altitude Azimuth Distance (km) Brightness Sun altitude
Rises 18:52:59 0° 272° (W) 2,973 6.8 -14.7°
Reaches altitude 10° 18:57:39 10° 314° (NW) 2,032 4.7 -15.6°
Maximum altitude 18:58:23 10° 323° (NW) 2,004 4.5 -15.7°
Drops below altitude 10° 18:59:07 10° 332° (NNW) 2,019 4.4 -15.8°
Enters shadow 19:03:30 - 14° (NNE) 2,833 4.7 -16.7°
